This demonstration page uses our WeatherBlox Daily Observations layout. Learn more.

Left ArrowRight Arrow

Hourly Observations for March 27, 2020

Temp ( °F °C ) Dew Point ( °F °C ) Humidity (%) Winds ( mph kmh ) Pressure ( in mb ) Visibility ( mi km ) Precip ( " mm )
12:54 am 00:54 Cloudy 48 8.9 41 5 77 77 NNE 14 22 29.76 1008 10 16.0934 0 0
1:54 am 01:54 Cloudy 48 8.9 41 5 77 77 NNE 13 20 29.75 1008 10 16.0934 0 0
2:20 am 02:20 Cloudy 48 8.9 41 5 77 77 NNE 12 19 29.77 1008 10 16.0934 0 0
2:54 am 02:54 Cloudy 48 8.9 41 5 77 77 NNE 13 20 29.76 1008 10 16.0934 0 0
3:54 am 03:54 Cloudy 48 8.9 42 5.6 80 80 ENE 13 20 29.75 1008 10 16.0934 0 0
4:54 am 04:54 Cloudy 47 8.3 42 5.6 83 83 E 13 20 29.73 1007 10 16.0934 0 0
5:31 am 05:31 Cloudy 47 8.3 42 5.6 83 83 ENE 13 20 29.75 1007 10 16.0934 0 0
5:54 am 05:54 Cloudy 47 8.3 43 6.1 86 86 NE 10 17 29.73 1007 9 14.48406 0 0
6:54 am 06:54 Cloudy with Mist and Fog 47 8.3 43 6.1 86 86 NE 8 13 29.73 1007 6 9.65604 0 0
7:54 am 07:54 Cloudy with Mist and Fog 46 7.8 43 6.1 89 89 NE 13 20 29.75 1007 3 4.82802 0 0
8:11 am 08:11 Cloudy with Mist and Fog 46 7.8 43 6.1 89 89 NE 10 17 29.76 1008 2 3.21868 0 0
8:22 am 08:22 Cloudy with Mist and Fog 46 7.8 44 6.7 93 93 NE 13 20 29.76 1008 1.75 2.816345 0 0
8:54 am 08:54 Cloudy with Mist and Fog 46 7.8 44 6.7 93 93 NNE 10 17 29.75 1007 1 1.60934 0 0
9:13 am 09:13 Cloudy with Mist and Fog 46 7.8 44 6.7 93 93 N 10 17 29.76 1008 0.75 1.207005 0 0
9:23 am 09:23 Cloudy with Mist and Fog 45 7.2 44 6.7 97 97 N 13 20 29.76 1008 1 1.60934 0 0
9:54 am 09:54 Cloudy with Mist and Fog 45 7.2 43 6.1 93 93 NNE 7 11 29.75 1008 0.75 1.207005 0 0
10:05 am 10:05 Cloudy with Mist and Fog 46 7.8 44 6.7 93 93 NNE 8 13 29.77 1008 1 1.60934 0 0
10:19 am 10:19 Cloudy with Mist and Fog 46 7.8 44 6.7 93 93 NNE 8 13 29.77 1008 0.75 1.207005 0 0
10:54 am 10:54 Cloudy with Mist and Fog 46 7.8 44 6.7 93 93 NE 8 13 29.78 1008 0.75 1.207005 0 0
11:14 am 11:14 Cloudy with Mist and Fog 47 8.3 45 7.2 93 93 NE 9 15 29.78 1008 1 1.60934 0 0
11:54 am 11:54 Cloudy with Mist and Fog 47 8.3 45 7.2 93 93 NNE 8 13 29.76 1008 1.5 2.41401 0 0
12:54 pm 12:54 Cloudy with Mist and Fog 47 8.3 45 7.2 93 93 NE 9 15 29.73 1007 1.5 2.41401 0 0
1:14 pm 13:14 Cloudy with Mist and Fog 48 8.9 45 7.2 89 89 NE 10 17 29.73 1007 2 3.21868 0 0
1:54 pm 13:54 Cloudy with Mist and Fog 48 8.9 45 7.2 89 89 Calm 29.74 1007 2.5 4.02335 0 0
2:30 pm 14:30 Cloudy with Mist and Fog 48 8.9 45 7.2 89 89 VRB 6 9 29.73 1007 2.5 4.02335 0 0
2:54 pm 14:54 Cloudy with Mist and Fog 48 8.9 45 7.2 89 89 NE 7 11 29.72 1006 1.75 2.816345 0 0
3:21 pm 15:21 Cloudy with Mist and Fog 48 8.9 45 7.2 89 89 NE 6 9 29.71 1006 2.5 4.02335 0 0
3:31 pm 15:31 Cloudy with Mist and Fog 48 8.9 45 7.2 89 89 NE 5 7 29.72 1006 3 4.82802 0 0
3:54 pm 15:54 Cloudy with Mist and Fog 48 8.9 44 6.7 86 86 N 9 15 29.69 1006 4 6.43736 0 0
4:05 pm 16:05 Cloudy with Mist and Fog 48 8.9 45 7.2 89 89 N 8 13 29.71 1006 2 3.21868 0 0
4:19 pm 16:19 Cloudy with Mist and Fog 48 8.9 45 7.2 89 89 N 5 7 29.71 1006 3 4.82802 0 0
4:29 pm 16:29 Cloudy with Mist and Fog 48 8.9 45 7.2 89 89 NE 7 11 29.7 1006 2.5 4.02335 0 0
4:46 pm 16:46 Cloudy with Mist and Fog 49 9.4 45 7.2 86 86 ENE 8 13 29.66 1005 4 6.43736 0 0
4:54 pm 16:54 Cloudy with Mist and Fog 49 9.4 45 7.2 86 86 NNE 3 6 29.69 1005 5 8.0467 0 0
5:54 pm 17:54 Cloudy with Mist and Fog 48 8.9 45 7.2 89 89 NNE 7 11 29.67 1005 2.5 4.02335 0 0
6:22 pm 18:22 Cloudy with Mist and Fog 48 8.9 45 7.2 89 89 N 5 7 29.7 1006 3 4.82802 0 0
6:52 pm 18:52 Cloudy with Mist and Fog 48 9 45 7 87 87 NNE 5 7 29.71 1006 2.5 4.02335 0 0
6:54 pm 18:54 Cloudy with Mist and Fog 48 8.9 45 7.2 89 89 NNE 3 6 29.7 1006 2.5 4.02335 0 0
7:44 pm 19:44 Cloudy with Mist and Fog 48 8.9 44 6.7 86 86 NNE 5 7 29.69 1005 3 4.82802 0 0
7:51 pm 19:51 Cloudy with Mist and Fog 48 9 45 7 87 87 N 5 7 29.7 1006 2.5 4.02335 0 0
7:54 pm 19:54 Cloudy with Mist and Fog 48 8.9 44 6.7 86 86 N 6 9 29.68 1005 3 4.82802 0 0
8:36 pm 20:36 Cloudy with Mist and Fog 47 8.3 45 7.2 93 93 N 6 9 29.71 1006 2.5 4.02335 0 0
8:54 pm 20:54 Cloudy with Mist and Fog 47 8.3 45 7.2 93 93 N 7 11 29.7 1006 2 3.21868 0 0
9:06 pm 21:06 Cloudy with Mist and Fog 47 8.3 45 7.2 93 93 N 7 11 29.72 1006 1.75 2.816345 0 0
9:46 pm 21:46 Cloudy with Mist and Fog 47 8.3 45 7.2 93 93 N 6 9 29.72 1006 2 3.21868 0 0
9:54 pm 21:54 Cloudy with Mist and Fog 46 7.8 45 7.2 96 96 N 5 7 29.71 1006 2 3.21868 0 0
10:54 pm 22:54 Cloudy with Light Rain 47 8.3 45 7.2 93 93 VRB 3 6 29.72 1006 3 4.82802 0.001 0.001
11:54 pm 23:54 Cloudy with Light Rain 46 7.8 44 6.7 93 93 VRB 3 6 29.69 1005 3 4.82802 0.02 0.508

Powered by AerisWeather